When you browse on this site, cookies collect data to enhance your experience and personalize the content and advertising you see.
Visit our Privacy Policy to learn more. By continuing to use the site, you agree to this use of cookies and data.
  • En España
  • Lista de países
  • Para 7 días
  • Temperatura del agua
  • Mapa Satelital
  • El tiempo en el mapa
  • Informadores
  • user-avatar
    Iniciar sesión

    Tiempo cada hora Chervonopraporne

    Hoy, 23 Mayo, Jueves

    Tiempo Temperatura Precipitaciones Viento Presión Humedad
    00:00 +15°C° 0 mm 5 mps 757 mmHg 80%
    01:00 +14°C° 0 mm 5 mps 757 mmHg 82%
    02:00 +14°C° 0 mm 5 mps 757 mmHg 83%
    03:00 +15°C° 0 mm 5 mps 756 mmHg 83%
    04:00 +15°C° 0 mm 6 mps 756 mmHg 83%
    05:00 +15°C° 0 mm 6 mps 756 mmHg 83%
    06:00 +17°C° 0 mm 6 mps 757 mmHg 76%
    07:00 +20°C° 0 mm 6 mps 757 mmHg 70%
    08:00 +22°C° 0 mm 6 mps 757 mmHg 63%
    09:00 +23°C° 0 mm 6 mps 757 mmHg 57%
    10:00 +24°C° 0 mm 6 mps 757 mmHg 50%
    11:00 +26°C° 0 mm 6 mps 756 mmHg 44%
    12:00 +26°C° 0 mm 6 mps 756 mmHg 43%
    13:00 +27°C° 0 mm 6 mps 756 mmHg 43%
    14:00 +27°C° 0 mm 6 mps 756 mmHg 42%
    15:00 +26°C° 0 mm 6 mps 756 mmHg 44%
    16:00 +26°C° 0 mm 6 mps 756 mmHg 46%
    17:00 +24°C° 0 mm 6 mps 756 mmHg 48%
    18:00 +22°C° 0 mm 5 mps 756 mmHg 55%
    19:00 +21°C° 0 mm 4 mps 756 mmHg 61%
    20:00 +19°C° 0 mm 4 mps 756 mmHg 68%
    21:00 +18°C° 0 mm 3 mps 756 mmHg 71%
    22:00 +18°C° 0 mm 3 mps 756 mmHg 74%
    23:00 +17°C° 0 mm 3 mps 756 mmHg 78%

    Mañana, 24 Mayo, Viernes

    Tiempo Temperatura Precipitaciones Viento Presión Humedad
    00:00 +17°C° 0 mm 3 mps 756 mmHg 80%
    01:00 +16°C° 0 mm 3 mps 756 mmHg 82%
    02:00 +16°C° 0 mm 3 mps 756 mmHg 84%
    03:00 +16°C° 0 mm 2 mps 756 mmHg 85%
    04:00 +16°C° 0 mm 2 mps 756 mmHg 85%
    05:00 +16°C° 0 mm 1 mps 756 mmHg 85%
    06:00 +19°C° 0 mm 1 mps 756 mmHg 78%
    07:00 +20°C° 0 mm 1 mps 756 mmHg 71%
    08:00 +21°C° 0 mm 2 mps 756 mmHg 63%
    09:00 +23°C° 0 mm 2 mps 756 mmHg 59%
    10:00 +24°C° 0 mm 2 mps 756 mmHg 54%
    11:00 +25°C° 0 mm 3 mps 756 mmHg 49%
    12:00 +26°C° 0 mm 3 mps 756 mmHg 48%
    13:00 +26°C° 0 mm 4 mps 756 mmHg 47%
    14:00 +27°C° 0 mm 4 mps 756 mmHg 45%
    15:00 +26°C° 0 mm 4 mps 755 mmHg 49%
    16:00 +25°C° 0 mm 4 mps 755 mmHg 53%
    17:00 +23°C° 0 mm 4 mps 755 mmHg 56%
    18:00 +22°C° 0.1 mm 4 mps 755 mmHg 60%
    19:00 +21°C° 0.1 mm 4 mps 755 mmHg 63%
    20:00 +20°C° 0.1 mm 3 mps 755 mmHg 67%
    21:00 +19°C° 0 mm 3 mps 755 mmHg 68%
    22:00 +19°C° 0 mm 3 mps 755 mmHg 69%
    23:00 +19°C° 0 mm 3 mps 755 mmHg 71%

    Pasado mañana, 25 Mayo, Sábado

    Tiempo Temperatura Precipitaciones Viento Presión Humedad
    00:00 +18°C° 0 mm 3 mps 755 mmHg 73%
    01:00 +18°C° 0 mm 3 mps 755 mmHg 76%
    02:00 +17°C° 0 mm 3 mps 754 mmHg 78%
    03:00 +17°C° 0 mm 3 mps 754 mmHg 80%
    04:00 +17°C° 0 mm 3 mps 754 mmHg 82%
    05:00 +17°C° 0 mm 2 mps 754 mmHg 84%
    06:00 +19°C° 0 mm 2 mps 754 mmHg 78%
    07:00 +20°C° 0 mm 2 mps 754 mmHg 71%
    08:00 +23°C° 0 mm 2 mps 754 mmHg 65%
    09:00 +23°C° 0 mm 2 mps 754 mmHg 61%
    10:00 +24°C° 0 mm 2 mps 754 mmHg 58%
    11:00 +25°C° 0 mm 2 mps 754 mmHg 54%
    12:00 +26°C° 0.1 mm 2 mps 754 mmHg 53%
    13:00 +26°C° 0.1 mm 2 mps 754 mmHg 51%
    14:00 +26°C° 0.1 mm 2 mps 754 mmHg 50%
    15:00 +25°C° 0.8 mm 3 mps 754 mmHg 54%
    16:00 +25°C° 0.8 mm 4 mps 754 mmHg 59%
    17:00 +23°C° 0.8 mm 5 mps 754 mmHg 63%
    18:00 +22°C° 0 mm 5 mps 754 mmHg 68%
    19:00 +20°C° 0 mm 5 mps 754 mmHg 73%
    20:00 +19°C° 0 mm 5 mps 755 mmHg 77%
    21:00 +19°C° 0.3 mm 5 mps 755 mmHg 80%
    22:00 +17°C° 0.3 mm 5 mps 755 mmHg 82%
    23:00 +17°C° 0.3 mm 5 mps 755 mmHg 85%

    26 Mayo, Domingo

    Tiempo Temperatura Precipitaciones Viento Presión Humedad
    00:00 +16°C° 0 mm 5 mps 755 mmHg 86%
    01:00 +16°C° 0 mm 5 mps 755 mmHg 87%
    02:00 +16°C° 0 mm 5 mps 755 mmHg 88%
    03:00 +16°C° 0 mm 5 mps 755 mmHg 89%
    04:00 +16°C° 0 mm 5 mps 755 mmHg 90%
    05:00 +17°C° 0 mm 4 mps 755 mmHg 91%
    06:00 +19°C° 0 mm 4 mps 755 mmHg 84%
    07:00 +20°C° 0 mm 4 mps 755 mmHg 77%
    08:00 +22°C° 0 mm 4 mps 755 mmHg 70%
    09:00 +25°C° 0 mm 4 mps 756 mmHg 64%
    10:00 +26°C° 0 mm 5 mps 756 mmHg 58%
    11:00 +27°C° 0 mm 5 mps 756 mmHg 52%
    12:00 +27°C° 0.2 mm 5 mps 756 mmHg 52%
    13:00 +27°C° 0.2 mm 6 mps 756 mmHg 52%
    14:00 +27°C° 0.2 mm 6 mps 756 mmHg 52%
    15:00 +27°C° 0.2 mm 6 mps 757 mmHg 53%
    16:00 +27°C° 0.2 mm 6 mps 757 mmHg 55%
    17:00 +26°C° 0.2 mm 6 mps 757 mmHg 57%
    18:00 +24°C° 0 mm 6 mps 757 mmHg 62%
    19:00 +22°C° 0 mm 6 mps 758 mmHg 67%
    20:00 +20°C° 0 mm 6 mps 758 mmHg 72%
    21:00 +20°C° 0 mm 6 mps 758 mmHg 73%
    22:00 +19°C° 0 mm 5 mps 758 mmHg 75%
    23:00 +17°C° 0 mm 5 mps 759 mmHg 76%

    27 Mayo, Lunes

    Tiempo Temperatura Precipitaciones Viento Presión Humedad
    00:00 +17°C° 0 mm 5 mps 759 mmHg 78%
    01:00 +17°C° 0 mm 4 mps 759 mmHg 81%
    02:00 +17°C° 0 mm 4 mps 759 mmHg 83%
    03:00 +17°C° 0 mm 4 mps 759 mmHg 83%
    04:00 +17°C° 0 mm 4 mps 759 mmHg 83%
    05:00 +17°C° 0 mm 4 mps 759 mmHg 83%
    06:00 +19°C° 0 mm 4 mps 760 mmHg 76%
    07:00 +21°C° 0 mm 4 mps 760 mmHg 69%
    08:00 +23°C° 0 mm 4 mps 760 mmHg 62%
    09:00 +25°C° 0 mm 4 mps 760 mmHg 57%
    10:00 +27°C° 0 mm 4 mps 760 mmHg 51%
    11:00 +28°C° 0 mm 4 mps 760 mmHg 45%
    12:00 +28°C° 0 mm 4 mps 760 mmHg 44%
    13:00 +29°C° 0 mm 4 mps 760 mmHg 43%
    14:00 +29°C° 0 mm 4 mps 760 mmHg 42%
    15:00 +29°C° 0 mm 4 mps 760 mmHg 45%
    16:00 +28°C° 0 mm 4 mps 760 mmHg 47%
    17:00 +28°C° 0 mm 3 mps 761 mmHg 50%
    18:00 +26°C° 0 mm 3 mps 761 mmHg 57%
    19:00 +24°C° 0 mm 2 mps 761 mmHg 63%
    20:00 +22°C° 0 mm 1 mps 761 mmHg 70%
    21:00 +21°C° 0 mm 1 mps 761 mmHg 71%
    22:00 +21°C° 0 mm 1 mps 761 mmHg 72%
    23:00 +18°C° 0 mm 0 mps 761 mmHg 73%

    28 Mayo, Martes

    Tiempo Temperatura Precipitaciones Viento Presión Humedad
    00:00 +20°C° 0 mm 1 mps 761 mmHg 74%
    01:00 +20°C° 0 mm 1 mps 761 mmHg 75%
    02:00 +19°C° 0 mm 1 mps 761 mmHg 76%
    03:00 +19°C° 0 mm 1 mps 761 mmHg 76%
    04:00 +19°C° 0 mm 2 mps 761 mmHg 76%
    05:00 +19°C° 0 mm 3 mps 761 mmHg 76%
    06:00 +20°C° 0 mm 4 mps 761 mmHg 70%
    07:00 +22°C° 0 mm 5 mps 761 mmHg 65%
    08:00 +23°C° 0 mm 6 mps 761 mmHg 60%
    09:00 +24°C° 0 mm 6 mps 761 mmHg 56%
    10:00 +26°C° 0 mm 7 mps 760 mmHg 52%
    11:00 +26°C° 0 mm 7 mps 760 mmHg 48%
    12:00 +26°C° 0 mm 7 mps 760 mmHg 50%
    13:00 +26°C° 0 mm 7 mps 760 mmHg 51%
    14:00 +27°C° 0 mm 7 mps 759 mmHg 53%
    15:00 +26°C° 0 mm 7 mps 759 mmHg 57%
    16:00 +26°C° 0 mm 7 mps 759 mmHg 60%
    17:00 +24°C° 0 mm 7 mps 759 mmHg 63%
    18:00 +23°C° 0 mm 7 mps 759 mmHg 67%
    19:00 +22°C° 0 mm 7 mps 759 mmHg 72%
    20:00 +21°C° 0 mm 7 mps 758 mmHg 76%
    21:00 +20°C° 0 mm 6 mps 758 mmHg 78%
    22:00 +20°C° 0 mm 6 mps 758 mmHg 79%
    23:00 +20°C° 0 mm 5 mps 758 mmHg 81%
    Mostrar más